Location: Gaast
(52.9002°N, 5.8891°E)
Time: 14:28:26
(UTC+00:00)

ACS3 Solar Sail - Pass Details

Date: 28 January 2026
Orbit: 898 x 968 km, 97.2° (Epoch: 17 February)

Event Time Altitude Azimuth Distance (km) Brightness Sun altitude
Rises 04:03:04 0° 7° (N) 3,622 5.0 -30.4°
Reaches altitude 10° 04:06:13 10° 350° (N) 2,659 4.1 -29.9°
Enters shadow 04:06:40 12° 347° (NNW) 2,543 3.9 -29.8°
